Theta_e
333 330 339 339 339 339 342 337 332 334 335 332 335 336 341 341 347 352 340 339 340 338 331 333 334 332 333 334 333 329 326 327 329 330 331 331 331 329 325 323 331 334 333 329 329 329 327 324 320
336 338 338 335 342 345 341 334 335 332 332 332 334 335 338 343 339 341 341 339 339 338 335 330 334 332 333 328 326 326 330 329 328 327 326 326 326 328 329 324 321 329 331 329 328 327 325 323 321
333 333 333 340 342 343 341 334 333 334 332 334 335 333 334 341 339 340 340 339 339 338 337 332 327 333 333 334 330 331 332 330 329 326 325 324 325 324 327 326 325 326 328 331 329 326 326 324 322
332 330 331 339 343 338 334 333 333 332 330 331 330 334 335 336 339 341 340 340 339 337 337 331 325 325 331 333 333 332 334 333 330 326 325 323 322 321 322 327 326 326 323 329 330 328 327 325 325
329 331 337 339 339 335 332 332 330 330 329 328 327 330 338 339 341 341 340 339 338 338 336 331 326 324 325 331 332 334 334 334 330 325 326 324 323 320 322 326 324 323 321 321 328 327 327 326 325
331 333 337 339 338 334 332 330 330 329 329 327 326 333 337 339 340 340 339 339 338 338 336 332 327 325 325 326 333 333 335 334 329 326 327 327 326 323 320 321 321 321 320 320 319 325 326 325 325
333 337 337 335 337 335 333 329 330 330 331 330 324 329 336 338 340 340 339 339 338 338 336 334 330 328 325 325 327 334 335 333 329 326 330 329 328 327 325 324 323 323 324 321 320 318 315 314 314
330 335 338 333 336 337 331 330 330 331 327 322 325 328 335 336 340 339 339 339 339 339 338 338 336 332 329 324 325 327 331 329 331 328 329 332 331 329 327 326 325 325 325 325 325 323 321 321 320
327 335 337 335 336 334 329 331 331 330 327 327 329 330 332 338 340 339 339 339 339 339 339 339 338 337 337 335 326 324 325 332 332 329 325 327 329 329 330 329 326 328 327 325 325 325 325 324 323
328 335 335 332 331 332 329 330 331 330 328 331 331 331 335 337 339 339 339 338 339 339 339 338 338 338 337 337 335 331 326 324 325 324 325 325 329 331 332 332 331 330 327 326 326 326 325 325 325
330 334 332 330 329 331 329 330 330 329 329 331 331 333 335 336 338 339 338 338 338 338 338 338 337 337 337 337 335 335 332 333 331 330 330 330 329 330 331 330 329 329 329 325 326 326 327 326 326
329 327 327 327 327 331 330 330 330 330 330 327 328 334 334 335 336 338 337 337 337 337 338 337 337 337 337 336 336 335 334 333 333 332 331 330 330 330 330 331 330 330 330 330 330 329 330 329 329
327 327 326 325 326 328 330 331 330 329 328 328 328 334 334 334 336 337 336 336 336 336 336 337 336 336 336 336 336 335 335 334 333 333 332 331 330 331 331 331 331 331 330 330 330 329 329 329 329
326 327 326 326 327 328 331 331 330 328 327 329 328 328 331 332 334 335 335 335 335 335 336 336 337 337 337 336 335 335 335 335 334 333 333 333 331 331 332 332 332 331 331 330 330 329 329 329 329
325 328 326 326 327 327 328 330 330 328 328 329 330 328 328 329 332 333 334 334 335 335 335 335 336 337 337 336 336 336 336 335 335 334 334 334 333 332 332 332 332 332 332 331 331 330 330 330 329
327 327 331 327 327 324 326 334 329 327 328 329 329 328 328 328 330 331 333 333 333 334 334 334 335 336 336 336 336 336 336 336 336 335 335 334 334 333 333 333 333 333 332 332 332 331 330 330 330
329 330 331 327 325 326 327 333 326 325 326 328 328 328 329 329 330 331 331 331 331 332 333 333 334 335 335 336 336 336 336 336 336 336 335 335 334 334 334 333 333 333 333 333 333 332 330 329 327
331 330 328 325 322 324 327 325 324 323 324 326 328 328 326 328 329 331 331 331 331 331 331 331 332 333 334 334 334 335 335 335 336 336 335 335 335 334 334 334 333 332 332 332 332 331 330 328 326
329 332 331 325 321 323 325 327 324 322 322 324 324 324 323 322 322 324 324 325 326 326 326 326 326 327 330 332 333 333 334 334 334 334 335 335 334 333 332 331 331 329 327 327 327 327 328 326 324
330 330 330 326 322 321 323 323 322 321 321 321 321 320 321 321 320 320 321 321 321 320 319 320 320 320 320 321 324 326 327 328 330 329 331 331 330 327 323 322 322 323 322 321 321 321 322 323 323
327 330 329 327 322 321 321 321 319 320 319 318 318 317 317 318 318 314 313 314 314 315 316 318 318 318 319 319 321 322 323 323 322 322 321 320 320 320 321 321 320 320 321 321 321 321 322 323 325
326 322 324 325 323 324 322 329 323 322 318 317 317 316 316 316 311 311 312 312 312 312 312 313 315 316 317 318 319 318 318 319 319 320 321 322 321 317 316 317 318 318 318 319 319 322 324 324 325
324 324 324 324 325 323 323 323 320 320 317 316 315 314 311 312 311 310 311 311 311 311 311 313 314 314 314 314 314 314 315 316 316 317 317 318 317 318 317 315 315 316 317 318 318 319 319 322 324
320 321 322 323 325 328 324 323 320 319 318 315 311 311 311 311 311 310 312 312 311 311 310 310 311 311 310 310 310 310 311 313 314 315 317 318 318 318 317 316 315 316 317 317 318 318 318 319 320
320 319 323 321 320 322 318 323 321 314 312 310 311 311 310 310 310 310 310 311 310 310 310 309 309 309 308 308 308 308 308 308 309 310 312 314 315 316 316 315 314 314 314 314 314 315 315 315 315
320 317 321 323 322 316 312 312 312 313 311 309 310 311 309 310 310 309 311 311 311 310 309 309 308 308 307 307 307 306 306 305 305 305 306 307 308 310 312 313 312 312 312 312 311 312 312 311 312
320 320 315 315 311 314 313 313 314 312 312 311 311 310 309 310 310 310 311 311 310 309 309 308 308 307 307 306 306 305 305 304 304 304 304 304 304 304 305 305 306 306 307 308 309 309 309 308 308
318 315 316 316 315 314 311 313 313 313 312 311 310 310 310 309 309 309 309 310 310 309 308 308 307 307 306 306 305 305 304 304 304 303 303 302 302 302 302 302 302 302 303 303 303 304 304 304 304
318 317 317 317 317 319 315 311 308 311 310 310 309 310 309 309 309 308 309 310 310 310 309 308 307 307 306 305 305 304 303 303 302 302 301 301 300 300 300 300 299 299 299 299 299 300 300 300 300
315 317 317 316 316 314 316 315 309 308 308 309 309 309 309 309 309 308 310 310 310 308 307 306 305 304 304 303 303 302 302 301 301 301 300 299 299 299 298 297 297 297 297 297 296 297 297 297 297
Wind_Speed
6 10 11 5 3 4 7 4 8 6 5 3 9 8 12 9 6 8 19 20 24 20 19 19 15 16 13 14 13 11 10 9 9 8 7 6 6 7 7 7 9 10 8 8 8 9 9 10 10
4 5 7 3 4 3 5 9 7 7 10 9 7 2 3 6 7 12 11 22 21 20 17 18 17 14 13 12 11 11 10 9 8 7 5 4 4 4 5 5 5 6 8 4 4 6 7 8 8
6 10 3 4 5 0 3 6 9 10 9 6 4 2 4 5 10 12 19 23 22 20 17 14 17 16 14 12 11 10 9 8 7 4 4 3 3 3 5 5 6 5 5 5 4 3 4 5 5
4 4 5 5 10 7 7 9 14 8 4 3 6 9 6 5 13 15 22 23 22 19 14 13 15 15 14 13 12 11 10 9 6 4 5 6 5 4 6 6 5 3 4 4 6 1 1 4 4
7 4 5 6 6 3 4 12 11 9 7 6 4 6 6 11 17 22 23 22 23 19 13 14 14 14 14 13 13 12 11 10 5 5 6 5 4 4 6 7 4 3 3 3 5 4 2 2 3
3 3 4 8 7 5 5 9 9 7 8 8 3 8 6 13 18 20 20 22 19 18 14 15 13 13 13 13 12 12 14 11 6 6 6 4 2 2 3 4 3 2 1 3 3 6 7 9 9
4 6 8 10 6 5 4 9 7 8 8 6 8 8 7 11 20 20 20 22 19 17 17 15 14 13 12 13 13 12 13 10 7 7 7 5 4 2 3 3 3 3 2 2 3 4 5 6 7
2 3 11 14 7 5 7 7 5 7 6 7 4 3 7 11 21 20 19 19 19 17 16 12 10 10 10 11 12 12 12 11 10 8 10 8 9 7 6 6 7 6 6 6 5 5 6 6 8
3 3 6 15 5 7 9 6 1 4 7 4 3 7 20 26 21 19 19 18 19 16 13 13 13 7 7 5 8 11 11 11 11 10 10 10 8 8 8 9 8 9 10 10 10 10 10 10 11
4 4 9 6 7 10 12 9 7 5 8 7 8 6 25 25 21 19 16 16 18 18 14 13 11 10 9 7 6 7 8 10 11 10 9 10 9 8 11 9 10 12 14 14 14 14 14 14 14
5 4 2 6 7 4 11 9 8 7 6 10 12 11 15 19 18 17 15 15 15 15 14 13 12 11 10 9 7 5 7 7 7 8 7 10 7 10 14 15 16 14 14 16 15 14 15 15 12
5 2 4 4 6 3 10 7 8 5 3 9 17 14 14 11 13 16 15 15 16 16 15 14 13 13 12 11 11 10 9 11 10 11 13 12 13 14 13 12 10 13 11 13 11 13 15 14 12
8 5 2 0 3 6 7 6 7 8 7 11 14 13 12 10 15 16 16 16 15 14 15 15 16 15 15 14 11 11 12 12 12 12 12 14 15 13 12 12 13 14 14 14 15 15 16 17 18
3 5 6 5 3 5 6 7 0 8 8 9 12 10 10 10 16 17 18 16 17 14 13 14 15 16 15 15 15 13 13 14 13 14 15 15 15 15 15 14 15 16 16 16 16 17 17 18 19
7 6 6 5 6 1 2 2 4 9 8 9 9 9 10 9 17 16 15 14 16 15 13 15 16 16 17 16 16 16 16 15 16 16 16 17 17 16 17 16 16 17 16 17 17 18 18 20 20
5 2 7 5 5 2 4 6 7 5 8 9 9 9 9 9 13 14 16 15 14 15 17 16 16 16 17 18 17 17 16 16 18 18 17 18 19 19 17 17 19 18 17 17 19 18 19 21 22
5 5 8 5 6 3 5 3 9 5 4 7 8 8 8 7 8 11 11 10 12 14 14 15 15 16 18 18 18 17 16 17 18 18 18 19 18 18 18 19 19 17 17 19 20 22 21 24 25
3 3 6 8 4 2 5 5 4 4 2 4 5 6 7 5 2 9 10 11 12 12 11 11 12 17 17 16 17 18 19 20 19 18 18 18 17 16 17 18 18 17 18 21 20 21 23 23 26
3 4 5 9 6 4 2 4 8 8 6 1 3 1 4 6 7 6 3 5 6 6 8 10 12 13 12 14 16 17 17 17 18 18 17 17 15 14 16 17 17 17 18 19 19 18 18 21 23
6 5 2 2 4 4 4 5 6 4 4 3 5 5 4 2 2 3 1 3 2 1 3 6 8 11 14 14 17 14 10 10 14 11 17 20 21 19 18 18 18 19 20 21 22 20 21 23 22
9 9 6 3 2 4 3 7 8 7 8 6 7 7 5 4 3 6 10 11 11 10 7 5 4 6 8 10 11 11 13 12 12 12 13 13 12 14 16 16 16 16 16 17 15 15 18 21 23
8 2 2 9 2 1 5 4 7 10 7 6 6 6 6 1 7 7 9 10 9 9 7 7 6 4 5 6 6 5 6 6 3 2 5 8 13 14 13 14 14 15 14 16 15 14 16 18 17
2 9 5 1 2 5 4 1 6 3 6 7 9 5 8 7 7 7 9 7 6 8 10 7 4 2 3 5 6 6 7 8 10 10 10 11 12 13 12 12 12 12 12 12 14 16 17 17 20
7 10 8 5 3 2 6 3 4 3 7 4 6 7 8 7 6 8 8 9 10 10 11 9 7 4 4 3 2 3 5 7 8 7 8 9 9 9 12 13 12 11 11 12 14 16 17 17 18
3 7 2 2 1 4 2 6 9 1 5 7 9 8 8 6 7 7 8 11 12 12 11 10 8 4 4 2 2 4 5 6 8 9 9 9 9 9 9 10 13 12 11 12 14 16 18 19 19
8 6 4 5 4 3 4 4 4 1 8 9 8 7 7 8 6 7 8 11 11 10 9 8 7 5 3 3 4 5 6 7 7 9 11 12 12 12 13 16 17 15 15 17 17 18 20 19 21
6 5 3 4 2 3 4 4 4 5 6 8 5 7 8 8 8 7 9 9 7 6 7 7 6 6 7 7 7 7 8 10 11 11 13 14 14 15 16 17 18 18 17 19 20 21 22 21 23
3 6 3 2 4 2 3 3 4 5 5 8 7 6 7 8 8 6 7 7 6 5 7 7 7 7 7 8 9 10 11 12 13 15 15 16 17 17 17 19 20 19 19 20 21 23 23 23 25
3 4 1 4 2 3 1 3 4 4 5 9 9 8 8 8 8 6 5 5 3 3 5 7 7 8 9 10 11 12 13 14 15 16 17 17 19 19 19 21 22 23 23 23 23 24 24 25 27
5 6 4 3 3 1 3 4 3 5 7 9 9 7 6 6 6 4 3 3 1 4 6 9 9 9 10 11 11 12 13 13 14 17 18 18 20 21 22 23 24 25 25 25 25 25 25 26 27
Wind_Direction
20 143 159 208 250 220 219 104 108 83 80 34 61 30 78 49 25 107 144 136 133 132 145 141 145 147 147 137 134 128 119 112 111 111 104 94 81 76 78 90 90 85 89 60 67 76 70 66 68
149 214 234 270 248 263 309 116 134 116 92 82 73 34 34 80 79 112 117 132 134 138 134 149 147 149 152 151 146 138 128 123 118 111 106 100 97 93 86 85 103 109 78 76 83 76 67 68 67
225 217 291 222 228 220 220 137 113 92 116 141 101 23 28 85 118 137 140 139 133 130 145 149 154 158 159 157 153 147 139 134 122 113 121 125 120 118 117 102 93 108 108 108 116 51 58 54 59
260 214 258 252 265 148 108 115 103 118 76 30 94 92 70 334 152 128 142 142 140 145 156 152 154 163 168 165 165 163 157 152 137 127 126 123 120 114 137 129 125 132 140 136 128 47 326 13 6
274 260 248 235 268 68 60 109 130 153 147 153 226 114 99 71 105 132 143 142 134 149 162 159 158 160 166 171 174 175 173 172 161 151 145 140 135 131 148 162 157 161 126 164 159 146 221 307 336
260 244 253 238 217 86 89 119 148 143 124 96 130 99 127 132 135 144 149 140 151 158 166 161 158 162 165 172 176 180 180 183 181 169 156 148 130 139 156 182 202 209 226 221 219 227 250 269 280
259 264 260 253 153 129 123 140 157 123 128 159 120 124 124 163 145 149 154 144 149 165 167 168 164 165 169 175 180 177 185 195 190 187 196 198 214 251 232 217 220 227 236 242 243 254 258 276 282
270 251 263 266 148 156 133 157 135 138 55 87 358 159 159 157 148 152 154 149 152 162 169 170 170 174 173 180 186 192 202 212 203 203 209 220 227 241 252 248 240 241 243 249 253 260 267 275 280
276 270 245 254 170 124 139 136 355 84 122 110 72 39 129 143 152 154 155 156 156 161 174 176 178 170 181 195 195 200 207 210 218 221 221 227 240 244 263 264 252 252 255 255 258 262 266 271 273
220 214 247 272 261 142 156 147 126 143 136 116 93 83 122 144 159 159 162 168 164 164 179 180 180 182 185 185 217 229 223 230 235 235 231 238 234 240 257 258 266 267 263 261 260 262 265 267 274
211 253 257 354 359 64 159 160 150 156 176 161 146 143 140 154 163 163 171 174 174 175 179 184 186 189 193 197 211 239 209 250 241 246 238 239 249 238 251 254 256 270 274 263 266 263 269 267 268
248 79 325 338 350 0 169 143 157 197 97 132 138 143 151 160 168 171 174 169 177 175 183 188 190 194 200 202 209 209 209 221 221 226 229 224 231 235 241 255 264 264 270 271 273 267 272 272 267
243 118 119 351 321 310 150 133 160 118 85 88 128 144 157 162 169 175 181 182 184 192 190 195 197 200 201 208 217 210 216 222 227 225 231 229 229 237 247 251 251 253 257 258 258 260 256 256 258
306 191 137 171 107 359 168 129 202 130 128 114 131 158 165 167 174 177 182 181 181 191 195 200 205 206 209 211 214 220 223 226 232 227 235 244 236 234 242 246 249 252 251 253 254 257 259 258 257
271 155 143 156 148 163 329 62 232 145 136 138 159 166 166 177 175 180 182 183 185 193 203 207 213 214 214 223 223 227 226 233 235 239 236 236 246 244 237 245 250 257 262 261 257 255 259 261 260
233 197 151 118 165 263 219 196 201 103 135 157 176 169 166 173 177 183 183 187 196 200 206 213 214 219 226 226 228 233 238 236 242 240 241 242 243 244 248 250 257 262 263 265 264 268 271 270 266
274 182 145 119 14 145 209 88 102 79 146 207 179 164 159 163 172 188 193 195 199 205 213 215 217 224 230 230 237 239 240 240 240 244 245 243 245 249 250 253 259 263 266 266 265 264 269 274 277
213 217 124 116 28 343 183 122 93 99 121 260 176 171 107 90 171 190 197 202 209 221 232 238 232 229 233 243 242 243 246 246 244 244 246 246 248 250 252 257 261 264 266 267 270 272 270 269 277
276 353 354 61 35 39 234 233 163 150 125 174 300 44 151 176 213 225 142 141 183 214 241 250 255 251 244 234 238 242 248 252 254 247 246 242 235 236 242 245 250 252 252 256 258 267 273 273 275
159 173 292 331 22 356 309 256 261 277 147 208 264 255 235 241 293 239 224 48 76 66 309 292 260 255 255 252 242 242 244 246 241 250 242 250 254 251 251 251 256 261 267 270 274 280 283 277 273
169 198 200 292 142 207 330 274 246 240 212 203 221 228 264 290 347 17 22 23 23 36 19 322 297 267 261 262 242 238 238 250 259 258 258 263 251 249 256 263 267 272 280 284 287 280 272 269 274
181 197 122 173 198 189 134 292 270 230 160 181 235 239 238 122 58 55 41 35 26 360 343 322 323 301 249 241 227 253 265 269 276 223 210 243 267 270 270 271 275 276 274 275 277 280 279 276 273
121 101 172 244 22 1 203 179 254 260 162 191 214 114 87 74 63 53 46 23 15 5 15 20 350 325 272 256 248 232 251 258 265 268 273 279 284 293 295 287 284 284 290 290 285 286 282 281 282
139 109 97 76 34 268 233 214 249 229 207 130 97 95 86 73 72 70 71 64 52 42 44 43 56 39 358 350 323 276 259 275 285 288 289 297 296 289 294 297 294 290 291 289 291 287 282 280 278
160 142 97 76 147 220 145 213 244 275 65 113 141 123 118 105 90 91 79 72 60 52 50 52 60 53 13 354 322 308 307 303 306 313 311 305 303 301 311 300 298 302 299 296 292 287 284 283 284
186 184 158 171 182 207 350 240 257 39 57 98 99 102 110 119 118 100 95 84 69 54 46 46 41 41 9 349 333 318 310 312 310 307 306 302 295 288 285 283 290 294 290 286 286 285 283 283 280
185 214 15 98 45 69 193 267 318 229 129 114 160 150 161 142 130 110 84 81 78 61 42 32 24 14 0 347 336 331 326 322 316 314 309 306 304 303 299 295 295 295 292 289 289 287 285 284 281
136 134 80 345 131 204 239 254 222 202 207 166 144 170 150 145 127 127 103 80 56 45 32 22 9 358 348 340 339 329 324 321 317 314 314 312 310 307 305 303 300 298 296 291 288 287 287 286 284
130 158 156 135 112 167 160 230 316 60 270 165 170 171 153 147 150 148 129 62 32 37 37 26 18 4 356 351 343 333 331 329 325 319 320 317 315 313 310 303 302 300 297 295 292 290 289 287 286
218 161 144 128 241 238 136 266 25 37 31 102 88 65 66 89 107 134 13 289 207 87 36 30 20 12 360 355 349 343 339 340 337 334 331 325 319 318 312 309 305 303 300 298 295 293 290 287 286